Time,TemperatureF,DewpointF,PressureIn,WindDirection,WindDirectionDegrees,WindSpeedMPH,WindSpeedGustMPH,Humidity,HourlyPrecipIn,Conditions,Clouds,dailyrainin,SoftwareType,DateUTC
2013-04-05 00:09:00,41.9,41.0,30.01,NE,38,0.0,0.0,97,0.00,,,0.00,weatherlink.com 1.10,2013-04-05 04:09:00,
2013-04-05 00:24:00,41.8,41.0,30.01,NE,53,0.0,2.0,97,0.00,,,0.00,weatherlink.com 1.10,2013-04-05 04:24:00,
2013-04-05 00:40:00,41.8,41.0,30.01,ENE,76,0.0,1.0,97,0.00,,,0.00,weatherlink.com 1.10,2013-04-05 04:40:00,
2013-04-05 00:55:00,41.8,41.0,30.01,ENE,76,0.0,0.0,97,0.00,,,0.00,weatherlink.com 1.10,2013-04-05 04:55:00,
2013-04-05 01:10:00,41.8,41.0,30.02,ENE,76,0.0,0.0,97,0.00,,,0.00,weatherlink.com 1.10,2013-04-05 05:10:00,
2013-04-05 01:25:00,41.8,41.0,30.01,ENE,76,0.0,0.0,97,0.00,,,0.00,weatherlink.com 1.10,2013-04-05 05:25:00,
2013-04-05 01:40:00,41.8,41.0,30.02,ENE,76,0.0,0.0,97,0.00,,,0.00,weatherlink.com 1.10,2013-04-05 05:40:00,
2013-04-05 01:55:00,41.7,41.0,30.01,ENE,76,0.0,0.0,97,0.00,,,0.00,weatherlink.com 1.10,2013-04-05 05:55:00,
2013-04-05 02:10:00,41.7,41.0,30.01,ENE,76,0.0,0.0,97,0.00,,,0.00,weatherlink.com 1.10,2013-04-05 06:10:00,
2013-04-05 02:25:00,41.7,41.0,30.01,ENE,76,0.0,0.0,97,0.00,,,0.00,weatherlink.com 1.10,2013-04-05 06:25:00,
2013-04-05 02:40:00,41.7,41.0,30.02,ENE,76,0.0,0.0,97,0.00,,,0.00,weatherlink.com 1.10,2013-04-05 06:40:00,
2013-04-05 02:55:00,41.6,41.0,30.02,ENE,76,0.0,0.0,97,0.00,,,0.00,weatherlink.com 1.10,2013-04-05 06:55:00,
2013-04-05 03:10:00,41.7,41.0,30.02,ENE,76,0.0,0.0,97,0.00,,,0.00,weatherlink.com 1.10,2013-04-05 07:10:00,
2013-04-05 03:25:00,41.7,41.0,30.02,NNE,13,0.0,1.0,97,0.00,,,0.00,weatherlink.com 1.10,2013-04-05 07:25:00,
2013-04-05 03:40:00,41.8,41.0,30.02,NNE,13,0.0,0.0,97,0.01,,,0.01,weatherlink.com 1.10,2013-04-05 07:40:00,
2013-04-05 03:55:00,41.9,41.0,30.02,North,5,0.0,1.0,97,0.01,,,0.01,weatherlink.com 1.10,2013-04-05 07:55:00,
2013-04-05 04:10:00,41.9,41.0,30.02,North,5,0.0,0.0,98,0.01,,,0.01,weatherlink.com 1.10,2013-04-05 08:10:00,
2013-04-05 04:25:00,41.8,41.0,30.03,WNW,296,0.0,2.0,97,0.01,,,0.01,weatherlink.com 1.10,2013-04-05 08:25:00,
2013-04-05 04:40:00,41.8,41.0,30.03,WNW,295,0.0,1.0,97,0.01,,,0.02,weatherlink.com 1.10,2013-04-05 08:40:00,
2013-04-05 04:55:00,41.8,41.0,30.03,WNW,295,0.0,1.0,97,0.02,,,0.03,weatherlink.com 1.10,2013-04-05 08:55:00,
2013-04-05 05:10:00,41.8,41.0,30.03,NW,316,1.0,3.0,98,0.03,,,0.04,weatherlink.com 1.10,2013-04-05 09:10:00,
2013-04-05 05:25:00,41.8,41.0,30.03,NW,311,0.0,3.0,97,0.03,,,0.04,weatherlink.com 1.10,2013-04-05 09:25:00,
2013-04-05 05:40:00,41.8,41.0,30.03,NNW,328,3.0,5.0,97,0.02,,,0.04,weatherlink.com 1.10,2013-04-05 09:40:00,
2013-04-05 05:55:00,41.8,41.0,30.03,NW,321,1.0,5.0,97,0.01,,,0.04,weatherlink.com 1.10,2013-04-05 09:55:00,
2013-04-05 06:10:00,41.8,41.0,30.03,NW,324,0.0,4.0,98,0.00,,,0.04,weatherlink.com 1.10,2013-04-05 10:10:00,
2013-04-05 06:25:00,41.7,41.0,30.03,NW,321,1.0,6.0,98,0.00,,,0.04,weatherlink.com 1.10,2013-04-05 10:25:00,
2013-04-05 06:40:00,41.8,41.0,30.03,NNW,346,2.0,5.0,97,0.00,,,0.04,weatherlink.com 1.10,2013-04-05 10:40:00,
2013-04-05 06:55:00,41.8,41.0,30.03,North,355,1.0,3.0,97,0.00,,,0.04,weatherlink.com 1.10,2013-04-05 10:55:00,
2013-04-05 07:10:00,41.9,41.0,30.04,NW,326,0.0,5.0,97,0.00,,,0.04,weatherlink.com 1.10,2013-04-05 11:10:00,
2013-04-05 07:25:00,42.1,41.0,30.05,NNW,337,0.0,6.0,97,0.00,,,0.04,weatherlink.com 1.10,2013-04-05 11:25:00,
2013-04-05 07:40:00,42.2,41.0,30.06,West,265,5.0,7.0,97,0.00,,,0.04,weatherlink.com 1.10,2013-04-05 11:40:00,
2013-04-05 07:55:00,42.4,42.0,30.06,NW,319,0.0,4.0,97,0.00,,,0.04,weatherlink.com 1.10,2013-04-05 11:55:00,
2013-04-05 08:10:00,42.7,42.0,30.07,NW,323,0.0,4.0,97,0.00,,,0.04,weatherlink.com 1.10,2013-04-05 12:10:00,
2013-04-05 08:25:00,43.2,42.0,30.07,NNE,17,0.0,3.0,97,0.00,,,0.04,weatherlink.com 1.10,2013-04-05 12:25:00,
2013-04-05 08:40:00,43.5,43.0,30.07,NNE,17,0.0,1.0,97,0.00,,,0.04,weatherlink.com 1.10,2013-04-05 12:40:00,
2013-04-05 08:55:00,43.8,43.0,30.08,NNE,13,1.0,3.0,96,0.00,,,0.04,weatherlink.com 1.10,2013-04-05 12:55:00,
2013-04-05 09:10:00,43.9,43.0,30.09,NNW,339,1.0,3.0,96,0.00,,,0.04,weatherlink.com 1.10,2013-04-05 13:10:00,
2013-04-05 09:26:00,44.1,43.0,30.09,NNW,338,0.0,3.0,97,0.00,,,0.04,weatherlink.com 1.10,2013-04-05 13:26:00,
2013-04-05 09:41:00,44.5,44.0,30.09,North,360,0.0,2.0,96,0.00,,,0.04,weatherlink.com 1.10,2013-04-05 13:41:00,
2013-04-05 09:56:00,45.3,44.0,30.09,NW,323,4.0,8.0,94,0.00,,,0.04,weatherlink.com 1.10,2013-04-05 13:56:00,
2013-04-05 10:41:00,47.8,45.0,30.10,NW,319,4.0,8.0,89,0.00,,,0.04,weatherlink.com 1.10,2013-04-05 14:41:00,
2013-04-05 10:56:00,49.1,45.0,30.10,NNW,337,4.0,10.0,86,0.00,,,0.04,weatherlink.com 1.10,2013-04-05 14:56:00,
2013-04-05 11:11:00,49.7,44.0,30.10,North,350,5.0,11.0,81,0.00,,,0.04,weatherlink.com 1.10,2013-04-05 15:11:00,
2013-04-05 11:26:00,51.1,44.0,30.10,NNE,30,2.0,8.0,78,0.00,,,0.04,weatherlink.com 1.10,2013-04-05 15:26:00,
2013-04-05 11:41:00,52.2,43.0,30.10,NW,304,1.0,9.0,72,0.00,,,0.04,weatherlink.com 1.10,2013-04-05 15:41:00,
2013-04-05 11:56:00,53.9,44.0,30.10,NE,45,1.0,7.0,69,0.00,,,0.04,weatherlink.com 1.10,2013-04-05 15:56:00,
2013-04-05 12:11:00,54.6,44.0,30.11,NNW,348,3.0,8.0,68,0.00,,,0.04,weatherlink.com 1.10,2013-04-05 16:11:00,
2013-04-05 12:41:00,56.5,39.0,30.10,North,355,6.0,12.0,52,0.00,,,0.04,weatherlink.com 1.10,2013-04-05 16:41:00,
2013-04-05 12:56:00,57.4,38.0,30.10,NNE,31,2.0,9.0,49,0.00,,,0.04,weatherlink.com 1.10,2013-04-05 16:56:00,
2013-04-05 13:11:00,58.3,40.0,30.09,NE,56,1.0,7.0,50,0.00,,,0.04,weatherlink.com 1.10,2013-04-05 17:11:00,
2013-04-05 13:26:00,58.8,38.0,30.09,NW,304,7.0,11.0,46,0.00,,,0.04,weatherlink.com 1.10,2013-04-05 17:26:00,
2013-04-05 13:41:00,60.2,38.0,30.09,NNW,344,3.0,7.0,44,0.00,,,0.04,weatherlink.com 1.10,2013-04-05 17:41:00,
2013-04-05 13:56:00,61.0,39.0,30.08,NNE,17,4.0,6.0,44,0.00,,,0.04,weatherlink.com 1.10,2013-04-05 17:56:00,
2013-04-05 14:12:00,60.5,38.0,30.08,NNE,26,3.0,9.0,44,0.00,,,0.04,weatherlink.com 1.10,2013-04-05 18:12:00,
2013-04-05 14:27:00,60.7,35.0,30.07,WNW,293,5.0,11.0,39,0.00,,,0.04,weatherlink.com 1.10,2013-04-05 18:27:00,
2013-04-05 14:42:00,61.9,38.0,30.07,West,259,1.0,8.0,41,0.00,,,0.04,weatherlink.com 1.10,2013-04-05 18:42:00,
2013-04-05 14:57:00,62.7,36.0,30.07,NW,311,7.0,11.0,37,0.00,,,0.04,weatherlink.com 1.10,2013-04-05 18:57:00,
2013-04-05 15:12:00,64.0,37.0,30.07,NNE,15,1.0,8.0,37,0.00,,,0.04,weatherlink.com 1.10,2013-04-05 19:12:00,
2013-04-05 15:27:00,64.1,36.0,30.06,WNW,297,7.0,7.0,36,0.00,,,0.04,weatherlink.com 1.10,2013-04-05 19:27:00,
2013-04-05 15:42:00,63.4,35.0,30.06,NW,304,3.0,9.0,35,0.00,,,0.04,weatherlink.com 1.10,2013-04-05 19:42:00,
2013-04-05 15:57:00,64.1,37.0,30.05,NNE,17,4.0,8.0,37,0.00,,,0.04,weatherlink.com 1.10,2013-04-05 19:57:00,
2013-04-05 16:12:00,64.0,35.0,30.05,NW,317,2.0,9.0,34,0.00,,,0.04,weatherlink.com 1.10,2013-04-05 20:12:00,
2013-04-05 16:27:00,64.5,35.0,30.05,WNW,296,6.0,10.0,33,0.00,,,0.04,weatherlink.com 1.10,2013-04-05 20:27:00,
2013-04-05 16:42:00,64.7,33.0,30.04,WNW,294,7.0,10.0,31,0.00,,,0.04,weatherlink.com 1.10,2013-04-05 20:42:00,
2013-04-05 16:57:00,65.0,35.0,30.04,NW,325,5.0,8.0,33,0.00,,,0.04,weatherlink.com 1.10,2013-04-05 20:57:00,
2013-04-05 17:12:00,66.0,35.0,30.04,NNW,333,1.0,9.0,32,0.00,,,0.04,weatherlink.com 1.10,2013-04-05 21:12:00,
2013-04-05 17:27:00,65.8,36.0,30.04,NNW,334,10.0,11.0,33,0.00,,,0.04,weatherlink.com 1.10,2013-04-05 21:27:00,
2013-04-05 17:42:00,65.3,36.0,30.05,NW,315,3.0,8.0,34,0.00,,,0.04,weatherlink.com 1.10,2013-04-05 21:42:00,
2013-04-05 17:57:00,65.2,36.0,30.05,NNW,336,4.0,8.0,34,0.00,,,0.04,weatherlink.com 1.10,2013-04-05 21:57:00,
2013-04-05 18:12:00,64.2,37.0,30.05,NW,304,2.0,9.0,37,0.00,,,0.04,weatherlink.com 1.10,2013-04-05 22:12:00,
2013-04-05 18:27:00,63.8,36.0,30.05,NW,306,3.0,9.0,36,0.00,,,0.04,weatherlink.com 1.10,2013-04-05 22:27:00,
2013-04-05 18:42:00,63.5,37.0,30.06,NW,321,2.0,7.0,37,0.00,,,0.04,weatherlink.com 1.10,2013-04-05 22:42:00,
2013-04-05 18:57:00,62.3,36.0,30.05,NW,323,1.0,7.0,38,0.00,,,0.04,weatherlink.com 1.10,2013-04-05 22:57:00,
2013-04-05 19:12:00,61.3,37.0,30.06,WNW,298,8.0,10.0,40,0.00,,,0.04,weatherlink.com 1.10,2013-04-05 23:12:00,
2013-04-05 19:27:00,60.5,38.0,30.07,NW,306,3.0,10.0,43,0.00,,,0.04,weatherlink.com 1.10,2013-04-05 23:27:00,
2013-04-05 19:42:00,59.7,36.0,30.06,WNW,300,0.0,4.0,41,0.00,,,0.04,weatherlink.com 1.10,2013-04-05 23:42:00,
2013-04-05 19:57:00,58.8,36.0,30.07,NW,323,0.0,6.0,43,0.00,,,0.04,weatherlink.com 1.10,2013-04-05 23:57:00,
2013-04-05 20:12:00,57.9,36.0,30.07,WNW,284,4.0,4.0,44,0.00,,,0.04,weatherlink.com 1.10,2013-04-06 00:12:00,
2013-04-05 20:27:00,56.6,37.0,30.08,NW,317,0.0,4.0,48,0.00,,,0.04,weatherlink.com 1.10,2013-04-06 00:27:00,
2013-04-05 20:42:00,56.0,35.0,30.08,North,360,0.0,3.0,46,0.00,,,0.04,weatherlink.com 1.10,2013-04-06 00:42:00,
2013-04-05 20:57:00,55.5,35.0,30.08,NNW,335,0.0,2.0,46,0.00,,,0.04,weatherlink.com 1.10,2013-04-06 00:57:00,
2013-04-05 21:12:00,55.0,34.0,30.09,WNW,303,0.0,2.0,46,0.00,,,0.04,weatherlink.com 1.10,2013-04-06 01:12:00,
2013-04-05 21:27:00,54.2,35.0,30.09,WNW,297,0.0,3.0,49,0.00,,,0.04,weatherlink.com 1.10,2013-04-06 01:27:00,
2013-04-05 21:42:00,53.5,34.0,30.10,NW,325,0.0,3.0,48,0.00,,,0.04,weatherlink.com 1.10,2013-04-06 01:42:00,
2013-04-05 21:57:00,53.2,35.0,30.11,NW,323,3.0,4.0,50,0.00,,,0.04,weatherlink.com 1.10,2013-04-06 01:57:00,
2013-04-05 22:12:00,53.2,36.0,30.11,NNW,331,1.0,3.0,52,0.00,,,0.04,weatherlink.com 1.10,2013-04-06 02:12:00,
2013-04-05 22:27:00,52.8,35.0,30.11,NW,313,2.0,4.0,51,0.00,,,0.04,weatherlink.com 1.10,2013-04-06 02:27:00,
2013-04-05 22:42:00,52.6,34.0,30.12,WNW,299,0.0,3.0,49,0.00,,,0.04,weatherlink.com 1.10,2013-04-06 02:42:00,
2013-04-05 22:57:00,52.3,33.0,30.12,WNW,299,0.0,1.0,49,0.00,,,0.04,weatherlink.com 1.10,2013-04-06 02:57:00,
2013-04-05 23:12:00,52.0,34.0,30.13,WNW,299,0.0,1.0,50,0.00,,,0.04,weatherlink.com 1.10,2013-04-06 03:12:00,
2013-04-05 23:42:00,51.5,34.0,30.12,WNW,299,0.0,0.0,51,0.00,,,0.04,weatherlink.com 1.10,2013-04-06 03:42:00,
2013-04-05 23:57:00,51.0,34.0,30.13,WNW,299,0.0,0.0,52,0.00,,,0.04,weatherlink.com 1.10,2013-04-06 03:57:00,